Weather in Mykolaivka

Ukraine / Sumi District     50°56′28″N   34°22′43″E
temp.,
°C
wind,
m/s
gust,
m/s
humid.,
%
clouds,
%
prec.,
mm/h
press.,
hPa
HPBL,
m
19 april, mon
mon1900:00+5n1294100 0.3 101845
03:00+5nne369260 0.6 1017220
06:00+5nne2494100 0.1 1016138
09:00+7ene358341 0.2 1016606
12:00+9nne347099 0.2 1016848
15:00+11nne546440 0.3 10151134
18:00+10nne336557 0.1 10151062
21:00+7ne227923 0.1 101540
20 april, tue
tue2000:00+6ne228422 0.0 101329
03:00+5ne228748 0.0 101322
06:00+6ne2486100 0.0 101196
09:00+8ene3484100 0.0 1010305
12:00+9nne3590100 1.6 1009256
15:00+9ne4891100 2.7 1006379
18:00+8nne5994100 1.4 1005579
21:00+8n4893100 1.8 1005425
21 april, wed
wed2100:00+7nw4695100 0.3 1005351
03:00+7wnw3695100 0.3 1006394
06:00+6wnw599295 0.1 1008628
09:00+7w578095 0.2 1010776
12:00+9w5767100 0.5 10111238
15:00+10wsw786163 0.8 10121466
18:00+10sw576648 0.1 1013994
21:00+7ssw3677100 0.1 1015105
22 april, thu
thu2200:00+6ssw378433 0.0 1015122
03:00+5s4108330 0.0 1016184
06:00+5s4108711 0.0 1016177
09:00+11ssw587178 0.0 1017427
12:00+15sw675412 0.3 10171500
15:00+16sw674882 1.2 10171911
18:00+15ssw465728 0.2 1017371
21:00+12ssw3567100 0.3 101893
23 april, fri
fri2300:00+11s376897 0.0 1018142
03:00+11s41067100 0.0 1018216
06:00+9s487983 0.0 1018156
09:00+12s6116899 0.0 1017469
12:00+16s8105283 0.0 10161711
15:00+16ssw711556 0.4 10141369
18:00+15s61160100 0.3 1013543
21:00+10wnw5894100 4.4 1015397